Wind_Speed
24 23 22 21 19 18 16 13 12 13 14 15 16 16 17 20 19 20 30 37 41 44 42 36 34 35 34 31 27 29 28 26 25 25 25 24 23 24 25 24 22 20 22
23 21 20 19 19 19 18 15 13 13 15 17 18 18 17 18 17 15 12 22 39 41 36 34 31 35 37 36 35 33 33 31 28 27 28 28 26 26 27 27 26 24 24
23 20 19 18 19 21 21 20 18 17 17 18 19 21 21 21 20 18 16 14 22 32 35 41 35 35 36 33 33 35 35 33 31 29 29 31 30 29 29 30 29 29 28
23 21 19 20 21 22 24 24 23 22 21 21 22 23 24 24 22 21 20 18 21 28 27 33 37 34 33 33 35 36 35 34 34 34 33 33 32 33 33 32 31 31 30
22 21 20 21 20 21 22 23 24 23 23 23 24 25 25 26 23 20 20 22 25 27 26 27 28 28 27 29 32 35 35 35 35 34 35 37 36 35 35 34 32 32 31
21 23 24 21 19 18 18 19 21 23 23 24 24 24 25 26 26 24 21 25 28 29 27 26 28 31 30 29 31 36 37 35 34 31 32 34 36 36 37 34 32 32 30
20 23 23 21 22 22 21 22 22 23 24 25 25 24 25 26 27 28 26 27 30 32 29 26 26 30 31 32 34 35 34 33 32 32 31 32 35 35 34 30 29 29 29
16 21 22 23 25 27 27 25 24 24 25 26 25 25 25 27 30 31 30 29 28 29 31 32 32 31 29 29 29 33 34 32 31 32 32 33 34 33 31 29 27 29 31
19 22 25 27 28 27 26 25 25 25 25 24 24 24 25 28 29 30 30 30 28 26 27 28 30 32 32 29 27 28 34 37 37 33 34 37 37 35 32 30 32 35 34
22 25 26 26 26 24 23 23 24 24 25 25 24 26 27 27 26 28 29 29 29 26 25 28 28 27 28 30 30 29 29 33 37 39 37 39 41 37 34 33 34 34 34
22 23 24 24 23 21 21 21 22 22 24 25 26 27 28 28 27 29 30 31 29 27 25 25 26 24 22 24 28 30 31 31 32 35 40 42 43 37 34 34 34 36 34
21 21 21 21 20 19 19 20 21 23 25 26 27 28 29 29 30 28 30 31 30 28 25 24 23 21 22 23 24 25 28 32 33 33 34 39 41 39 37 36 35 36 35
19 19 17 16 16 16 16 18 21 24 27 28 30 31 30 29 28 26 27 31 33 30 27 23 21 19 19 21 22 23 26 28 30 33 35 36 39 40 37 36 37 38 38
16 15 13 12 13 14 15 18 21 24 27 29 29 30 31 29 27 25 27 31 32 30 28 26 25 25 22 22 23 22 21 21 22 24 24 32 37 40 43 43 40 37 40
14 13 12 12 12 13 14 17 21 23 24 19 13 13 19 25 26 23 23 25 26 25 24 23 23 23 23 22 22 21 21 21 19 18 21 23 27 32 37 39 41 42 39
12 12 11 11 11 11 11 14 17 18 18 11 5 5 6 16 21 22 22 22 22 22 21 21 20 21 22 23 24 24 23 22 21 20 20 22 27 31 33 35 38 42 45
13 11 9 8 8 10 12 13 17 16 14 10 9 8 8 9 15 20 21 20 18 18 19 20 21 22 24 25 25 27 27 26 24 21 19 18 20 24 28 32 35 37 38
13 11 9 8 7 9 11 13 15 16 15 11 9 10 11 12 11 13 15 15 14 16 18 20 20 21 21 22 23 25 28 29 27 26 25 23 22 22 23 25 28 31 34
12 10 8 7 7 7 9 11 12 13 12 11 8 6 6 5 5 4 4 6 9 12 15 17 18 19 20 21 23 24 25 26 28 29 29 29 28 28 28 27 27 28 29
10 9 9 8 8 7 7 8 11 12 12 12 11 9 7 5 3 1 1 4 8 11 14 17 19 20 20 20 19 20 22 24 25 26 28 29 30 30 31 33 32 32 32
10 9 8 9 9 9 8 8 9 11 12 13 13 12 12 10 8 6 5 5 7 10 12 14 15 16 16 16 17 18 18 19 20 21 22 24 28 30 31 31 32 35 37
11 10 10 12 13 13 12 11 11 11 13 14 14 14 13 12 12 11 10 9 9 9 10 11 12 12 11 11 11 12 14 15 14 14 16 18 18 19 22 27 30 30 31
11 11 12 13 14 16 16 16 15 15 15 16 16 15 13 12 11 10 9 11 11 11 11 10 9 8 7 8 8 8 11 13 15 17 18 19 18 18 18 19 20 22 23
11 11 12 12 13 13 14 14 14 14 13 13 13 14 14 15 14 13 12 12 13 13 12 9 6 4 3 2 1 6 10 11 14 18 18 17 16 15 15 14 15 13 14
11 12 13 13 13 14 14 14 13 13 13 13 14 16 17 18 18 17 17 16 15 15 15 15 15 14 11 10 10 11 12 11 13 14 13 12 13 14 15 16 17 18 21
11 12 14 14 14 15 15 15 15 15 15 15 15 16 17 18 18 19 20 20 19 19 19 18 17 14 12 12 13 13 14 13 12 12 12 13 13 14 16 18 18 18 20
Wind_Direction
300 300 293 284 277 268 262 255 249 247 244 247 255 261 261 264 264 264 246 241 227 222 221 222 229 230 230 237 244 246 247 246 243 243 241 243 248 248 248 249 250 252 255
300 299 296 285 277 269 264 261 262 263 258 254 255 261 266 266 261 259 242 239 224 222 218 219 225 234 235 238 245 247 248 250 248 250 251 247 247 248 251 248 250 253 258
287 286 289 283 275 269 266 268 272 273 268 262 259 259 260 261 260 250 243 253 235 219 217 219 221 235 237 241 241 245 246 249 250 254 254 253 247 246 252 253 252 254 259
270 272 283 283 278 273 272 273 276 277 274 268 263 260 259 259 258 255 245 237 220 227 232 234 233 240 238 242 245 243 243 249 255 257 254 255 253 250 249 251 254 256 258
260 269 285 290 285 282 280 277 276 274 272 269 267 263 258 254 253 253 239 232 227 230 229 232 241 240 242 246 248 245 246 251 258 255 251 251 250 251 248 250 254 256 256
260 270 284 290 286 287 286 281 279 279 277 275 270 265 257 250 251 252 243 235 233 233 237 243 242 240 246 249 251 249 247 250 252 251 250 247 248 249 247 248 252 253 252
262 275 281 286 289 290 286 280 280 280 278 274 271 263 256 249 246 246 247 243 239 238 241 245 246 249 251 250 251 250 248 244 245 248 247 244 247 248 247 246 245 245 245
288 283 287 290 293 294 293 289 284 280 278 275 270 263 256 252 249 247 248 248 244 242 243 243 245 249 254 249 249 248 246 246 247 249 250 249 245 243 244 242 241 243 247
294 292 294 295 296 295 292 290 289 285 280 276 274 268 261 256 254 251 246 243 239 236 236 239 241 244 246 244 248 251 247 246 248 249 249 247 245 246 244 241 240 244 248
292 293 295 295 293 291 289 288 288 286 284 280 274 268 264 260 254 252 247 241 235 234 237 238 238 239 241 243 247 254 251 248 249 246 248 247 242 242 242 242 241 244 248
298 298 298 295 292 290 290 291 291 291 288 284 277 270 261 256 251 247 243 239 237 237 238 239 243 244 243 248 254 258 260 260 259 254 248 246 241 235 235 240 243 245 246
306 304 301 299 297 296 297 297 297 296 293 288 279 270 264 258 253 244 239 235 236 240 240 239 241 248 250 253 256 258 261 263 262 260 257 249 242 238 235 238 241 244 243
315 311 305 303 300 298 300 303 305 301 294 285 275 266 260 254 248 238 237 233 232 238 240 240 243 248 254 256 256 260 263 266 263 264 263 251 243 240 238 238 236 238 240
321 315 309 312 305 299 302 309 313 312 307 296 276 254 242 237 235 234 235 235 237 240 240 243 247 249 255 259 260 260 259 271 267 265 266 252 244 242 240 241 240 242 244
323 324 325 326 319 310 313 322 326 331 336 326 280 248 232 228 228 228 227 232 238 238 243 246 245 247 252 259 261 260 259 267 277 272 263 261 252 243 242 241 242 239 243
332 332 334 337 339 343 345 349 347 345 355 14 340 343 190 215 220 222 225 226 231 233 236 236 237 245 252 256 260 264 264 266 270 272 265 253 252 249 247 245 243 244 244
351 341 334 339 351 356 353 355 2 4 5 27 28 37 77 157 198 210 213 212 215 225 233 239 247 254 258 261 262 264 264 264 266 271 274 267 262 260 256 252 250 248 247
355 349 341 335 336 341 347 357 5 11 16 22 29 42 56 80 117 151 171 189 210 227 241 249 255 262 265 267 268 266 263 262 264 268 272 271 270 269 268 265 260 254 250
351 351 350 354 349 348 355 4 14 20 27 29 34 56 69 77 89 111 160 212 241 252 257 260 261 264 266 269 270 269 265 264 265 267 268 268 266 267 268 269 267 263 260
1 3 5 5 5 2 5 15 25 31 35 37 38 44 54 63 66 74 229 243 251 256 259 263 266 269 269 266 263 263 264 266 267 268 266 265 264 264 264 264 263 263 262
19 15 15 17 20 22 28 36 36 34 34 34 38 41 44 46 46 39 14 335 305 292 287 283 279 276 272 267 264 263 265 271 276 276 275 272 267 263 262 262 263 262 260
30 34 39 43 49 51 54 54 50 46 45 47 51 55 56 55 54 49 35 14 353 335 316 299 287 280 274 269 267 269 275 284 287 290 293 290 283 275 271 269 268 269 268
40 47 53 59 62 62 62 64 68 71 69 66 60 53 45 38 29 20 12 2 355 347 333 322 308 286 263 254 255 275 294 294 291 295 299 299 294 288 286 286 281 273 270
55 62 67 71 74 74 74 76 77 75 69 59 51 45 43 43 40 35 28 20 15 12 12 20 39 77 107 122 272 315 322 316 312 307 295 286 291 294 297 293 288 278 275
64 72 78 83 85 86 85 83 79 73 66 59 56 57 57 56 54 52 51 50 48 49 54 65 77 81 76 52 22 356 342 330 323 321 314 303 298 297 297 296 294 286 285
75 83 84 85 85 83 80 76 71 66 63 61 60 62 62 61 59 57 56 57 58 60 62 64 66 63 52 34 23 13 4 358 347 334 327 321 310 301 298 297 296 295 289
Height
5790 5787 5786 5785 5784 5784 5784 5784 5784 5783 5783 5783 5783 5782 5782 5781 5780 5779 5777 5780 5784 5790 5795 5799 5805 5810 5815 5817 5819 5821 5824 5827 5829 5830 5832 5834 5836 5836 5837 5839 5840 5842 5843
5785 5782 5781 5779 5779 5779 5779 5780 5779 5779 5779 5779 5779 5778 5777 5777 5776 5775 5773 5774 5779 5784 5789 5793 5798 5802 5806 5810 5813 5815 5817 5820 5823 5824 5826 5828 5830 5831 5832 5833 5835 5837 5838
5779 5777 5776 5775 5774 5774 5774 5773 5773 5774 5774 5774 5774 5773 5772 5772 5772 5772 5772 5772 5774 5779 5784 5788 5792 5794 5798 5801 5804 5807 5810 5813 5816 5818 5819 5820 5823 5825 5826 5827 5829 5831 5832
5773 5771 5771 5770 5769 5769 5768 5767 5767 5767 5768 5768 5768 5768 5768 5767 5767 5767 5768 5770 5772 5775 5778 5781 5786 5788 5790 5793 5796 5799 5802 5805 5808 5810 5812 5813 5816 5818 5820 5820 5823 5824 5825
5767 5765 5766 5765 5763 5762 5762 5761 5760 5760 5761 5762 5762 5762 5762 5762 5762 5763 5764 5765 5767 5770 5772 5775 5777 5780 5782 5785 5788 5791 5794 5797 5799 5801 5803 5805 5808 5810 5812 5814 5816 5817 5818
5763 5762 5761 5759 5757 5756 5756 5755 5754 5754 5754 5754 5754 5755 5755 5756 5757 5757 5758 5760 5761 5762 5765 5767 5769 5772 5775 5777 5779 5782 5787 5789 5790 5792 5795 5797 5799 5802 5804 5806 5808 5810 5811
5754 5756 5755 5753 5751 5750 5750 5749 5748 5747 5746 5746 5746 5747 5748 5749 5750 5751 5752 5753 5754 5756 5759 5761 5763 5766 5768 5770 5772 5774 5777 5779 5782 5784 5787 5789 5791 5795 5797 5800 5802 5803 5803
5747 5749 5748 5746 5744 5742 5741 5740 5740 5739 5739 5738 5738 5738 5739 5740 5741 5743 5744 5745 5746 5748 5751 5754 5757 5759 5761 5762 5764 5767 5769 5771 5774 5776 5779 5782 5784 5786 5789 5792 5795 5795 5795
5744 5742 5740 5738 5736 5735 5733 5731 5730 5730 5730 5729 5728 5728 5729 5730 5732 5734 5735 5736 5738 5740 5743 5746 5748 5750 5754 5756 5759 5760 5762 5763 5765 5767 5769 5773 5777 5778 5781 5783 5785 5787 5788
5740 5737 5734 5731 5729 5727 5726 5724 5723 5722 5721 5720 5720 5719 5720 5721 5724 5724 5725 5727 5730 5733 5736 5739 5742 5745 5747 5748 5750 5751 5752 5753 5755 5758 5761 5764 5767 5768 5772 5774 5776 5778 5780
5734 5731 5727 5724 5721 5720 5719 5718 5716 5714 5712 5711 5710 5710 5711 5713 5715 5716 5717 5720 5723 5726 5729 5733 5735 5738 5740 5742 5742 5743 5744 5745 5746 5747 5751 5755 5757 5759 5762 5766 5768 5770 5773
5728 5724 5721 5718 5716 5714 5712 5711 5709 5706 5704 5702 5701 5700 5701 5703 5706 5709 5711 5714 5717 5719 5723 5727 5729 5731 5733 5736 5737 5737 5738 5738 5738 5739 5741 5744 5747 5750 5753 5757 5759 5761 5764
5723 5719 5717 5715 5712 5710 5708 5706 5702 5698 5695 5692 5690 5690 5691 5694 5696 5700 5703 5707 5711 5714 5718 5721 5723 5725 5727 5729 5730 5731 5731 5730 5730 5730 5731 5734 5737 5740 5743 5747 5750 5752 5754
5719 5716 5713 5711 5709 5707 5705 5701 5697 5692 5685 5679 5675 5675 5678 5684 5688 5693 5696 5700 5704 5708 5711 5714 5717 5720 5722 5723 5724 5724 5724 5724 5723 5723 5723 5724 5727 5729 5733 5736 5739 5741 5744
5716 5713 5709 5707 5705 5703 5701 5697 5692 5686 5679 5670 5665 5666 5669 5676 5682 5687 5690 5694 5698 5702 5704 5707 5711 5714 5716 5717 5717 5717 5718 5718 5718 5717 5718 5718 5719 5721 5722 5725 5728 5732 5735
5713 5710 5707 5705 5703 5700 5698 5694 5689 5683 5677 5671 5667 5667 5667 5672 5677 5682 5686 5689 5693 5696 5699 5703 5706 5709 5711 5712 5712 5712 5713 5713 5713 5713 5712 5712 5714 5715 5715 5716 5718 5720 5723
5711 5708 5706 5703 5701 5699 5696 5693 5688 5683 5678 5674 5672 5670 5670 5671 5675 5679 5682 5686 5689 5692 5696 5699 5701 5703 5705 5706 5706 5707 5708 5708 5707 5707 5707 5707 5707 5707 5707 5707 5708 5710 5712
5710 5707 5704 5702 5699 5697 5695 5692 5689 5684 5680 5677 5675 5674 5672 5673 5675 5678 5680 5683 5686 5689 5692 5694 5696 5697 5698 5698 5699 5701 5701 5701 5701 5701 5701 5701 5701 5700 5699 5699 5699 5700 5701
5708 5705 5703 5701 5699 5697 5695 5692 5689 5686 5683 5681 5679 5678 5677 5677 5678 5679 5680 5682 5684 5685 5687 5689 5691 5692 5692 5692 5693 5693 5694 5695 5695 5694 5693 5693 5693 5693 5692 5692 5692 5692 5693
5707 5704 5702 5700 5699 5697 5695 5693 5690 5688 5686 5684 5682 5681 5680 5680 5680 5680 5681 5682 5683 5683 5684 5684 5685 5686 5686 5686 5686 5687 5687 5687 5687 5686 5685 5684 5683 5682 5683 5683 5683 5684 5684
5707 5705 5703 5701 5699 5698 5696 5694 5692 5690 5689 5687 5685 5683 5682 5681 5681 5680 5681 5681 5680 5680 5680 5679 5679 5679 5679 5679 5680 5680 5681 5680 5679 5677 5675 5674 5673 5672 5673 5672 5672 5672 5673
5709 5707 5705 5703 5701 5699 5697 5696 5695 5693 5691 5689 5687 5686 5685 5683 5683 5682 5682 5681 5679 5678 5676 5675 5674 5674 5674 5675 5675 5675 5675 5674 5673 5671 5669 5667 5665 5663 5662 5662 5661 5661 5661
5711 5709 5708 5706 5704 5702 5701 5699 5698 5696 5695 5693 5692 5690 5688 5687 5686 5684 5683 5680 5678 5676 5674 5671 5670 5669 5669 5670 5671 5671 5671 5670 5668 5667 5664 5661 5659 5658 5656 5654 5652 5651 5651
5715 5713 5711 5710 5708 5707 5705 5703 5702 5700 5699 5697 5695 5693 5691 5689 5687 5685 5683 5681 5678 5675 5672 5669 5667 5666 5667 5668 5669 5670 5668 5666 5664 5661 5658 5656 5654 5652 5651 5648 5646 5645 5645
5719 5716 5715 5713 5712 5710 5709 5707 5706 5704 5703 5701 5699 5697 5694 5692 5690 5687 5685 5682 5679 5676 5673 5670 5669 5669 5670 5670 5670 5669 5666 5663 5660 5657 5654 5652 5650 5648 5646 5645 5643 5641 5639
5722 5720 5719 5718 5717 5715 5713 5711 5709 5708 5706 5704 5702 5701 5698 5696 5694 5691 5689 5686 5683 5680 5677 5675 5674 5673 5673 5672 5671 5668 5665 5662 5659 5656 5653 5650 5647 5644 5641 5639 5637 5635 5632